User: anonymous   Login
Location: Mentone
(34.5413°N, 85.5351°W)
Time: 21:48:55
(UTC-05:00)
Language:

Okean O Rocket - Orbit

View from above orbital plane
View from above orbital plane
View from above satellite
View from above satellite

Ground track
Ground track

The orbit data is extracted from the following two-line orbital elements,

1 25861U 99039B   15115.10269659  .00000781  00000-0  11504-3 0  9993
2 25861 097.9959 075.7051 0017167 089.1845 039.5787 14.78099952849930
Epoch (UTC): 25 April 2015 02:27:52
Eccentricity: 0.0017167
inclination: 97.9959°
perigee height: 623 km
apogee height: 647 km
right ascension of ascending node: 75.7051°
argument of perigee: 89.1845°
revolutions per day: 14.78099952
mean anomaly at epoch: 39.5787°
orbit number at epoch: 84993

The dashed part of the orbit path shows where the satellite is in the earth's shadow,  

DLR